Tiempo cada hora Caxias do Sul

Hoy, 15 Enero, Viernes

Tiempo Temperatura Precipitaciones Viento Presión Humedad
00:00 +16°C° 0 mm 1 mps 695 mmHg 87%
01:00 +16°C° 0 mm 1 mps 694 mmHg 89%
02:00 +15°C° 0 mm 1 mps 694 mmHg 91%
03:00 +15°C° 0 mm 1 mps 694 mmHg 94%
04:00 +15°C° 0 mm 1 mps 694 mmHg 95%
05:00 +15°C° 0 mm 1 mps 694 mmHg 95%
06:00 +15°C° 0 mm 1 mps 694 mmHg 96%
07:00 +19°C° 0 mm 1 mps 694 mmHg 84%
08:00 +22°C° 0 mm 1 mps 695 mmHg 72%
09:00 +25°C° 0 mm 2 mps 696 mmHg 61%
10:00 +27°C° 0.2 mm 2 mps 696 mmHg 59%
11:00 +28°C° 0.2 mm 1 mps 695 mmHg 57%
12:00 +29°C° 0.2 mm 1 mps 695 mmHg 54%
13:00 +29°C° 0.7 mm 1 mps 695 mmHg 59%
14:00 +28°C° 0.7 mm 1 mps 694 mmHg 63%
15:00 +27°C° 0.7 mm 1 mps 693 mmHg 68%
16:00 +27°C° 0.2 mm 2 mps 693 mmHg 67%
17:00 +27°C° 0.2 mm 2 mps 692 mmHg 65%
18:00 +27°C° 0.2 mm 2 mps 692 mmHg 64%
19:00 +25°C° 0 mm 2 mps 692 mmHg 72%
20:00 +23°C° 0 mm 2 mps 692 mmHg 80%
21:00 +20°C° 0 mm 2 mps 692 mmHg 87%
22:00 +20°C° 0 mm 2 mps 692 mmHg 86%
23:00 +20°C° 0 mm 2 mps 692 mmHg 85%

Mañana, 16 Enero, Sábado

Tiempo Temperatura Precipitaciones Viento Presión Humedad
00:00 +20°C° 0 mm 2 mps 692 mmHg 83%
01:00 +20°C° 0 mm 2 mps 691 mmHg 82%
02:00 +19°C° 0 mm 3 mps 691 mmHg 82%
03:00 +19°C° 0 mm 3 mps 691 mmHg 81%
04:00 +19°C° 0 mm 3 mps 691 mmHg 81%
05:00 +19°C° 0 mm 2 mps 690 mmHg 82%
06:00 +19°C° 0 mm 2 mps 690 mmHg 82%
07:00 +21°C° 0 mm 3 mps 691 mmHg 74%
08:00 +24°C° 0 mm 3 mps 691 mmHg 67%
09:00 +26°C° 0 mm 3 mps 692 mmHg 59%
10:00 +28°C° 0 mm 3 mps 692 mmHg 54%
11:00 +29°C° 0 mm 3 mps 692 mmHg 50%
12:00 +31°C° 0 mm 2 mps 691 mmHg 45%
13:00 +30°C° 0.6 mm 2 mps 691 mmHg 53%
14:00 +29°C° 0.6 mm 2 mps 690 mmHg 61%
15:00 +28°C° 0.6 mm 2 mps 689 mmHg 69%
16:00 +27°C° 1.2 mm 1 mps 689 mmHg 77%
17:00 +26°C° 1.2 mm 1 mps 688 mmHg 86%
18:00 +22°C° 1.2 mm 0 mps 688 mmHg 94%
19:00 +23°C° 1.2 mm 1 mps 688 mmHg 95%
20:00 +22°C° 1.2 mm 1 mps 688 mmHg 97%
21:00 +21°C° 1.2 mm 1 mps 688 mmHg 98%
22:00 +21°C° 3.7 mm 1 mps 688 mmHg 99%
23:00 +21°C° 3.7 mm 1 mps 688 mmHg 99%

Pasado mañana, 17 Enero, Domingo

Tiempo Temperatura Precipitaciones Viento Presión Humedad
00:00 +21°C° 3.7 mm 1 mps 688 mmHg 99%
01:00 +21°C° 3.6 mm 1 mps 688 mmHg 99%
02:00 +21°C° 3.6 mm 1 mps 688 mmHg 99%
03:00 +20°C° 3.6 mm 2 mps 688 mmHg 99%
04:00 +20°C° 1.9 mm 2 mps 687 mmHg 99%
05:00 +20°C° 1.9 mm 2 mps 687 mmHg 99%
06:00 +20°C° 1.9 mm 2 mps 687 mmHg 99%
07:00 +20°C° 1.1 mm 2 mps 688 mmHg 98%
08:00 +20°C° 1.1 mm 2 mps 688 mmHg 98%
09:00 +21°C° 1.1 mm 2 mps 688 mmHg 98%
10:00 +21°C° 0.6 mm 2 mps 688 mmHg 96%
11:00 +23°C° 0.6 mm 2 mps 688 mmHg 95%
12:00 +23°C° 0.6 mm 2 mps 688 mmHg 93%
13:00 +23°C° 1.4 mm 1 mps 688 mmHg 95%
14:00 +22°C° 1.4 mm 1 mps 687 mmHg 97%
15:00 +22°C° 1.4 mm 1 mps 687 mmHg 98%
16:00 +22°C° 3.2 mm 1 mps 687 mmHg 99%
17:00 +21°C° 3.2 mm 1 mps 687 mmHg 99%
18:00 +19°C° 3.2 mm 0 mps 687 mmHg 99%
19:00 +21°C° 2.1 mm 1 mps 688 mmHg 99%
20:00 +20°C° 2.1 mm 1 mps 689 mmHg 99%
21:00 +20°C° 2.1 mm 1 mps 689 mmHg 99%
22:00 +20°C° 0.5 mm 1 mps 689 mmHg 99%
23:00 +19°C° 0.5 mm 1 mps 690 mmHg 99%

18 Enero, Lunes

Tiempo Temperatura Precipitaciones Viento Presión Humedad
00:00 +19°C° 0.5 mm 1 mps 690 mmHg 99%
01:00 +19°C° 0 mm 1 mps 690 mmHg 99%
02:00 +18°C° 0 mm 1 mps 690 mmHg 99%
03:00 +16°C° 0 mm 1 mps 690 mmHg 99%
04:00 +16°C° 0 mm 1 mps 691 mmHg 99%
05:00 +16°C° 0 mm 1 mps 691 mmHg 99%
06:00 +16°C° 0 mm 1 mps 691 mmHg 99%
07:00 +18°C° 0.1 mm 1 mps 692 mmHg 93%
08:00 +19°C° 0.1 mm 1 mps 693 mmHg 88%
09:00 +20°C° 0.1 mm 1 mps 693 mmHg 82%
10:00 +22°C° 0 mm 1 mps 694 mmHg 71%
11:00 +24°C° 0 mm 2 mps 694 mmHg 61%
12:00 +25°C° 0 mm 2 mps 694 mmHg 50%
13:00 +26°C° 0 mm 2 mps 694 mmHg 48%
14:00 +26°C° 0 mm 2 mps 694 mmHg 47%
15:00 +26°C° 0 mm 2 mps 694 mmHg 45%
16:00 +25°C° 0 mm 3 mps 694 mmHg 49%
17:00 +24°C° 0 mm 3 mps 694 mmHg 53%
18:00 +22°C° 0 mm 3 mps 693 mmHg 57%
19:00 +20°C° 0 mm 2 mps 693 mmHg 69%
20:00 +18°C° 0 mm 2 mps 693 mmHg 82%
21:00 +16°C° 0 mm 1 mps 694 mmHg 95%
22:00 +15°C° 0 mm 1 mps 694 mmHg 96%
23:00 +15°C° 0 mm 1 mps 694 mmHg 97%

19 Enero, Martes

Tiempo Temperatura Precipitaciones Viento Presión Humedad
00:00 +14°C° 0 mm 1 mps 694 mmHg 98%
01:00 +14°C° 0 mm 1 mps 693 mmHg 98%
02:00 +13°C° 0 mm 1 mps 693 mmHg 98%
03:00 +13°C° 0 mm 1 mps 693 mmHg 98%
04:00 +13°C° 0 mm 1 mps 693 mmHg 98%
05:00 +12°C° 0 mm 1 mps 693 mmHg 98%
06:00 +12°C° 0 mm 1 mps 693 mmHg 98%
07:00 +15°C° 0 mm 1 mps 694 mmHg 86%
08:00 +20°C° 0 mm 1 mps 695 mmHg 74%
09:00 +23°C° 0 mm 1 mps 695 mmHg 62%
10:00 +25°C° 0 mm 1 mps 696 mmHg 58%
11:00 +26°C° 0 mm 1 mps 696 mmHg 54%
12:00 +28°C° 0 mm 1 mps 696 mmHg 50%
13:00 +28°C° 0.1 mm 1 mps 696 mmHg 53%
14:00 +28°C° 0.1 mm 1 mps 695 mmHg 55%
15:00 +27°C° 0.1 mm 1 mps 695 mmHg 58%
16:00 +26°C° 0.2 mm 1 mps 695 mmHg 68%
17:00 +24°C° 0.2 mm 1 mps 694 mmHg 77%
18:00 +22°C° 0.2 mm 1 mps 694 mmHg 86%
19:00 +21°C° 0.1 mm 1 mps 694 mmHg 90%
20:00 +20°C° 0.1 mm 1 mps 694 mmHg 93%
21:00 +18°C° 0.1 mm 1 mps 694 mmHg 97%
22:00 +18°C° 0 mm 1 mps 694 mmHg 97%
23:00 +16°C° 0 mm 1 mps 694 mmHg 97%

20 Enero, Miércoles

Tiempo Temperatura Precipitaciones Viento Presión Humedad
00:00 +15°C° 0 mm 1 mps 694 mmHg 97%
01:00 +15°C° 0 mm 1 mps 694 mmHg 98%
02:00 +15°C° 0 mm 1 mps 694 mmHg 98%
03:00 +15°C° 0 mm 1 mps 693 mmHg 98%
04:00 +15°C° 0 mm 1 mps 693 mmHg 98%
05:00 +15°C° 0 mm 1 mps 694 mmHg 98%
06:00 +15°C° 0 mm 1 mps 694 mmHg 98%
07:00 +18°C° 0 mm 1 mps 694 mmHg 87%
08:00 +21°C° 0 mm 1 mps 695 mmHg 75%
09:00 +24°C° 0 mm 1 mps 696 mmHg 64%
10:00 +25°C° 0 mm 1 mps 696 mmHg 60%
11:00 +26°C° 0 mm 1 mps 696 mmHg 56%
12:00 +28°C° 0 mm 2 mps 696 mmHg 52%
13:00 +27°C° 0.4 mm 2 mps 696 mmHg 58%
14:00 +27°C° 0.4 mm 2 mps 695 mmHg 64%
15:00 +27°C° 0.4 mm 2 mps 695 mmHg 69%
16:00 +25°C° 0.4 mm 2 mps 695 mmHg 74%
17:00 +24°C° 0.4 mm 2 mps 694 mmHg 78%
18:00 +23°C° 0.4 mm 2 mps 694 mmHg 83%
19:00 +21°C° 0 mm 2 mps 694 mmHg 86%
20:00 +19°C° 0 mm 2 mps 695 mmHg 88%
21:00 +19°C° 0 mm 1 mps 695 mmHg 91%
22:00 +18°C° 0 mm 1 mps 695 mmHg 93%
23:00 +16°C° 0 mm 1 mps 695 mmHg 95%
Mostrar más